Time,TemperatureF,DewpointF,PressureIn,WindDirection,WindDirectionDegrees,WindSpeedMPH,WindSpeedGustMPH,Humidity,HourlyPrecipIn,Conditions,Clouds,dailyrainin,SoftwareType,DateUTC
2013-04-14 00:00:00,46.3,36.3,29.98,SE,139,2.0,3.0,68,0.00,,CLR,0.00,VWS V14.01,2013-04-14 05:00:00,
2013-04-14 00:03:00,46.3,36.3,29.98,ESE,120,1.0,2.0,68,0.00,,OVC100,0.00,VWS V14.01,2013-04-14 05:03:00,
2013-04-14 00:08:00,46.3,36.3,29.98,SSE,153,1.0,3.0,68,0.00,,OVC100,0.00,VWS V14.01,2013-04-14 05:08:00,
2013-04-14 00:10:00,46.3,36.7,29.98,SE,124,2.0,3.0,69,0.00,,CLR,0.00,VWS V14.01,2013-04-14 05:10:00,
2013-04-14 00:13:00,46.2,36.6,29.99,SSE,148,0.0,4.0,69,0.00,,OVC100,0.00,VWS V14.01,2013-04-14 05:13:00,
2013-04-14 00:18:00,46.2,36.6,29.99,SE,142,1.0,4.0,69,0.00,,OVC100,0.00,VWS V14.01,2013-04-14 05:18:00,
2013-04-14 00:20:00,46.2,37.0,29.99,SE,141,1.0,4.0,70,0.00,,CLR,0.00,VWS V14.01,2013-04-14 05:20:00,
2013-04-14 00:23:00,46.2,37.0,29.99,East,82,1.0,3.0,70,0.00,,OVC070,0.00,VWS V14.01,2013-04-14 05:23:00,
2013-04-14 00:28:00,46.0,37.1,29.99,SE,131,1.0,3.0,71,0.00,,OVC070,0.00,VWS V14.01,2013-04-14 05:28:00,
2013-04-14 00:30:00,46.0,37.1,29.99,SE,131,1.0,3.0,71,0.00,,CLR,0.00,VWS V14.01,2013-04-14 05:30:00,
2013-04-14 00:34:00,46.0,37.5,29.99,East,86,2.0,4.0,72,0.00,,OVC070,0.00,VWS V14.01,2013-04-14 05:34:00,
2013-04-14 00:39:00,45.9,37.4,29.99,East,101,1.0,1.0,72,0.00,,OVC070,0.00,VWS V14.01,2013-04-14 05:39:00,
2013-04-14 00:40:00,45.9,37.4,29.99,ESE,102,1.0,4.0,72,0.00,,CLR,0.00,VWS V14.01,2013-04-14 05:40:00,
2013-04-14 00:44:00,45.8,37.3,29.99,ENE,78,1.0,3.0,72,0.00,,OVC070,0.00,VWS V14.01,2013-04-14 05:44:00,
2013-04-14 00:49:00,45.7,37.9,29.99,East,83,1.0,1.0,74,0.00,,OVC070,0.00,VWS V14.01,2013-04-14 05:49:00,
2013-04-14 00:50:00,45.7,37.9,29.99,East,84,1.0,3.0,74,0.00,,CLR,0.00,VWS V14.01,2013-04-14 05:50:00,
2013-04-14 00:54:00,45.6,37.8,29.99,SE,134,1.0,2.0,74,0.00,,OVC070,0.00,VWS V14.01,2013-04-14 05:54:00,
2013-04-14 00:59:00,45.6,37.8,29.99,SSE,149,1.0,2.0,74,0.00,,OVC070,0.00,VWS V14.01,2013-04-14 05:59:00,
2013-04-14 01:00:00,45.6,37.8,29.99,SSE,150,2.0,2.0,74,0.00,,CLR,0.00,VWS V14.01,2013-04-14 06:00:00,
2013-04-14 01:04:00,45.6,37.5,29.99,ENE,75,2.0,2.0,73,0.00,,OVC070,0.00,VWS V14.01,2013-04-14 06:04:00,
2013-04-14 01:09:00,45.6,37.8,29.99,ENE,75,1.0,3.0,74,0.00,,OVC070,0.00,VWS V14.01,2013-04-14 06:09:00,
2013-04-14 01:10:00,45.6,37.8,29.99,ESE,110,3.0,3.0,74,0.00,,CLR,0.00,VWS V14.01,2013-04-14 06:10:00,
2013-04-14 01:14:00,45.6,37.5,29.99,East,95,1.0,3.0,73,0.00,,OVC070,0.00,VWS V14.01,2013-04-14 06:14:00,
2013-04-14 01:20:00,45.6,37.5,29.99,East,85,1.0,2.0,73,0.00,,OVC070,0.00,VWS V14.01,2013-04-14 06:20:00,
2013-04-14 01:25:00,45.7,37.2,29.99,ESE,108,1.0,2.0,72,0.00,,OVC070,0.00,VWS V14.01,2013-04-14 06:25:00,
2013-04-14 01:30:00,45.7,36.8,29.99,SSE,161,1.0,2.0,71,0.00,,OVC070,0.00,VWS V14.01,2013-04-14 06:30:00,
2013-04-14 01:35:00,45.8,37.3,29.99,ESE,120,3.0,5.0,72,0.00,,OVC070,0.00,VWS V14.01,2013-04-14 06:35:00,
2013-04-14 01:40:00,45.8,37.0,29.98,SE,139,2.0,6.0,71,0.00,,OVC070,0.00,VWS V14.01,2013-04-14 06:40:00,
2013-04-14 01:45:00,46.0,36.4,29.98,SE,136,3.0,6.0,69,0.00,,OVC070,0.00,VWS V14.01,2013-04-14 06:45:00,
2013-04-14 01:50:00,46.1,36.5,29.99,SSE,152,2.0,6.0,69,0.00,,CLR,0.00,VWS V14.01,2013-04-14 06:50:00,
2013-04-14 01:51:00,46.1,36.5,29.98,East,101,4.0,4.0,69,0.00,,OVC070,0.00,VWS V14.01,2013-04-14 06:51:00,
2013-04-14 01:56:00,46.1,36.9,29.98,SSE,168,1.0,4.0,70,0.00,,OVC070,0.00,VWS V14.01,2013-04-14 06:56:00,
2013-04-14 02:00:00,46.1,36.9,29.98,SE,124,1.0,4.0,70,0.00,,CLR,0.00,VWS V14.01,2013-04-14 07:00:00,
2013-04-14 02:01:00,46.0,36.8,29.98,ESE,112,2.0,4.0,70,0.00,,OVC070,0.00,VWS V14.01,2013-04-14 07:01:00,
2013-04-14 02:06:00,46.0,36.8,29.97,SE,144,3.0,7.0,70,0.00,,OVC070,0.00,VWS V14.01,2013-04-14 07:06:00,
2013-04-14 02:10:00,46.0,36.4,29.97,ESE,115,5.0,8.0,69,0.00,,CLR,0.00,VWS V14.01,2013-04-14 07:10:00,
2013-04-14 02:12:00,46.1,36.9,29.97,SSE,161,3.0,6.0,70,0.00,,OVC070,0.00,VWS V14.01,2013-04-14 07:12:00,
2013-04-14 02:17:00,46.0,36.8,29.98,ESE,106,1.0,6.0,70,0.00,,OVC070,0.00,VWS V14.01,2013-04-14 07:17:00,
2013-04-14 02:20:00,46.0,37.1,29.98,South,177,3.0,6.0,71,0.00,,CLR,0.00,VWS V14.01,2013-04-14 07:20:00,
2013-04-14 02:22:00,46.0,37.1,29.97,ESE,115,2.0,4.0,71,0.00,,OVC070,0.00,VWS V14.01,2013-04-14 07:22:00,
2013-04-14 02:27:00,45.9,37.0,29.97,South,172,6.0,7.0,71,0.00,,OVC070,0.00,VWS V14.01,2013-04-14 07:27:00,
2013-04-14 02:30:00,45.9,36.7,29.97,SSE,167,2.0,7.0,70,0.00,,CLR,0.00,VWS V14.01,2013-04-14 07:30:00,
2013-04-14 02:32:00,45.9,37.0,29.97,SSE,155,5.0,7.0,71,0.00,,OVC070,0.00,VWS V14.01,2013-04-14 07:32:00,
2013-04-14 02:37:00,45.9,37.0,29.96,SE,143,2.0,9.0,71,0.00,,OVC070,0.00,VWS V14.01,2013-04-14 07:37:00,
2013-04-14 02:40:00,45.9,37.0,29.96,SE,131,5.0,9.0,71,0.00,,CLR,0.00,VWS V14.01,2013-04-14 07:40:00,
2013-04-14 02:42:00,45.8,37.0,29.96,SSW,207,3.0,8.0,71,0.00,,OVC070,0.00,VWS V14.01,2013-04-14 07:42:00,
2013-04-14 02:48:00,45.8,37.0,29.96,SE,127,4.0,11.0,71,0.00,,OVC070,0.00,VWS V14.01,2013-04-14 07:48:00,
2013-04-14 02:50:00,45.9,37.0,29.96,SSE,166,2.0,11.0,71,0.00,,CLR,0.00,VWS V14.01,2013-04-14 07:50:00,
2013-04-14 02:53:00,45.9,37.0,29.95,ESE,111,3.0,7.0,71,0.00,,OVC070,0.00,VWS V14.01,2013-04-14 07:53:00,
2013-04-14 02:58:00,45.9,37.0,29.95,South,181,3.0,9.0,71,0.00,,OVC070,0.00,VWS V14.01,2013-04-14 07:58:00,
2013-04-14 03:00:00,45.9,37.0,29.95,ESE,117,10.0,10.0,71,0.00,,CLR,0.00,VWS V14.01,2013-04-14 08:00:00,
2013-04-14 03:03:00,45.9,37.0,29.95,SSE,162,3.0,10.0,71,0.00,,OVC070,0.00,VWS V14.01,2013-04-14 08:03:00,
2013-04-14 03:08:00,45.8,37.3,29.95,SE,145,3.0,10.0,72,0.00,,OVC070,0.00,VWS V14.01,2013-04-14 08:08:00,
2013-04-14 03:10:00,45.8,37.3,29.95,SE,145,3.0,10.0,72,0.00,,CLR,0.00,VWS V14.01,2013-04-14 08:10:00,
2013-04-14 03:13:00,45.7,37.2,29.95,SE,125,4.0,10.0,72,0.00,,OVC070,0.00,VWS V14.01,2013-04-14 08:13:00,
2013-04-14 03:18:00,45.6,37.5,29.95,ESE,113,8.0,10.0,73,0.00,,OVC070,0.00,VWS V14.01,2013-04-14 08:18:00,
2013-04-14 03:20:00,45.6,37.5,29.95,ESE,113,8.0,10.0,73,0.00,,CLR,0.00,VWS V14.01,2013-04-14 08:20:00,
2013-04-14 03:24:00,45.5,37.4,29.95,South,172,2.0,9.0,73,0.00,,OVC070,0.00,VWS V14.01,2013-04-14 08:24:00,
2013-04-14 03:29:00,45.5,37.7,29.95,SSE,148,2.0,7.0,74,0.00,,OVC070,0.00,VWS V14.01,2013-04-14 08:29:00,
2013-04-14 03:30:00,45.5,37.7,29.95,SE,131,4.0,9.0,74,0.00,,CLR,0.00,VWS V14.01,2013-04-14 08:30:00,
2013-04-14 03:34:00,45.4,37.6,29.95,SE,141,2.0,9.0,74,0.00,,OVC070,0.00,VWS V14.01,2013-04-14 08:34:00,
2013-04-14 03:39:00,45.4,38.0,29.95,SE,146,5.0,6.0,75,0.00,,OVC070,0.00,VWS V14.01,2013-04-14 08:39:00,
2013-04-14 03:40:00,45.4,38.0,29.95,ESE,122,3.0,9.0,75,0.00,,CLR,0.00,VWS V14.01,2013-04-14 08:40:00,
2013-04-14 03:44:00,45.4,38.0,29.94,ESE,113,4.0,8.0,75,0.00,,OVC070,0.00,VWS V14.01,2013-04-14 08:44:00,
2013-04-14 03:50:00,45.3,37.9,29.94,SSE,153,3.0,6.0,75,0.00,,OVC070,0.00,VWS V14.01,2013-04-14 08:50:00,
2013-04-14 03:55:00,45.4,38.0,29.94,ESE,103,6.0,8.0,75,0.00,,OVC070,0.00,VWS V14.01,2013-04-14 08:55:00,
2013-04-14 04:00:00,45.4,38.0,29.94,SSE,155,5.0,14.0,75,0.00,,OVC070,0.00,VWS V14.01,2013-04-14 09:00:00,
2013-04-14 04:05:00,45.4,38.0,29.93,SE,142,9.0,14.0,75,0.00,,OVC070,0.00,VWS V14.01,2013-04-14 09:05:00,
2013-04-14 04:10:00,45.5,38.0,29.93,ENE,72,5.0,7.0,75,0.00,,OVC070,0.00,VWS V14.01,2013-04-14 09:10:00,
2013-04-14 04:15:00,45.4,38.3,29.93,SE,135,6.0,8.0,76,0.00,,OVC070,0.00,VWS V14.01,2013-04-14 09:15:00,
2013-04-14 04:20:00,45.4,38.0,29.92,SE,125,4.0,9.0,75,0.00,,CLR,0.00,VWS V14.01,2013-04-14 09:20:00,
2013-04-14 04:21:00,45.4,38.3,29.92,SSE,165,6.0,8.0,76,0.00,,OVC080,0.00,VWS V14.01,2013-04-14 09:21:00,
2013-04-14 04:26:00,45.4,38.0,29.92,SE,129,5.0,10.0,75,0.00,,OVC080,0.00,VWS V14.01,2013-04-14 09:26:00,
2013-04-14 04:30:00,45.4,38.3,29.93,East,94,3.0,10.0,76,0.00,,CLR,0.00,VWS V14.01,2013-04-14 09:30:00,
2013-04-14 04:31:00,45.3,38.2,29.93,ENE,68,9.0,10.0,76,0.00,,OVC080,0.00,VWS V14.01,2013-04-14 09:31:00,
2013-04-14 04:36:00,45.3,38.2,29.93,SSE,159,5.0,10.0,76,0.00,,OVC080,0.00,VWS V14.01,2013-04-14 09:36:00,
2013-04-14 04:40:00,45.2,38.4,29.92,ESE,122,5.0,10.0,77,0.00,,CLR,0.00,VWS V14.01,2013-04-14 09:40:00,
2013-04-14 04:41:00,45.2,38.4,29.92,SSE,148,5.0,10.0,77,0.00,,OVC080,0.00,VWS V14.01,2013-04-14 09:41:00,
2013-04-14 04:46:00,45.1,38.3,29.92,SSW,207,4.0,12.0,77,0.00,,OVC080,0.00,VWS V14.01,2013-04-14 09:46:00,
2013-04-14 04:50:00,45.1,38.7,29.92,SSE,151,5.0,12.0,78,0.00,,CLR,0.00,VWS V14.01,2013-04-14 09:50:00,
2013-04-14 04:51:00,45.0,38.6,29.92,SSW,197,4.0,8.0,78,0.00,,OVC080,0.00,VWS V14.01,2013-04-14 09:51:00,
2013-04-14 04:56:00,45.0,38.6,29.92,SE,129,5.0,10.0,78,0.00,,OVC080,0.00,VWS V14.01,2013-04-14 09:56:00,
2013-04-14 05:00:00,44.9,38.8,29.92,SSE,162,6.0,10.0,79,0.00,,CLR,0.00,VWS V14.01,2013-04-14 10:00:00,
2013-04-14 05:02:00,44.9,38.8,29.92,SE,133,5.0,10.0,79,0.00,,OVC080,0.00,VWS V14.01,2013-04-14 10:02:00,
2013-04-14 05:07:00,44.7,38.9,29.92,SSE,152,4.0,10.0,80,0.00,,OVC080,0.00,VWS V14.01,2013-04-14 10:07:00,
2013-04-14 05:10:00,44.7,38.9,29.91,ESE,110,8.0,10.0,80,0.00,,CLR,0.00,VWS V14.01,2013-04-14 10:10:00,
2013-04-14 05:12:00,44.6,39.1,29.92,SE,124,6.0,9.0,81,0.00,,OVC080,0.00,VWS V14.01,2013-04-14 10:12:00,
2013-04-14 05:17:00,44.5,39.4,29.91,East,94,2.0,9.0,82,0.00,,OVC080,0.00,VWS V14.01,2013-04-14 10:17:00,
2013-04-14 05:20:00,44.5,39.4,29.91,East,94,5.0,9.0,82,0.00,,CLR,0.00,VWS V14.01,2013-04-14 10:20:00,
2013-04-14 05:22:00,44.5,39.4,29.91,ESE,109,3.0,9.0,82,0.00,,OVC120,0.00,VWS V14.01,2013-04-14 10:22:00,
2013-04-14 05:27:00,44.4,39.3,29.91,ESE,104,5.0,9.0,82,0.00,,OVC120,0.00,VWS V14.01,2013-04-14 10:27:00,
2013-04-14 05:30:00,44.5,39.4,29.91,East,97,1.0,9.0,82,0.00,,CLR,0.00,VWS V14.01,2013-04-14 10:30:00,
2013-04-14 05:33:00,44.5,39.4,29.91,ESE,123,3.0,11.0,82,0.00,,OVC120,0.00,VWS V14.01,2013-04-14 10:33:00,
2013-04-14 05:38:00,44.6,39.5,29.91,SE,146,5.0,11.0,82,0.00,,OVC120,0.00,VWS V14.01,2013-04-14 10:38:00,
2013-04-14 05:40:00,44.5,39.4,29.91,SE,132,3.0,11.0,82,0.00,,CLR,0.00,VWS V14.01,2013-04-14 10:40:00,
2013-04-14 05:43:00,44.6,39.5,29.91,ESE,106,3.0,8.0,82,0.00,,OVC120,0.00,VWS V14.01,2013-04-14 10:43:00,
2013-04-14 05:48:00,44.6,39.5,29.91,SE,131,5.0,9.0,82,0.00,,OVC120,0.00,VWS V14.01,2013-04-14 10:48:00,
2013-04-14 05:50:00,44.6,39.5,29.91,ESE,111,7.0,9.0,82,0.00,,CLR,0.00,VWS V14.01,2013-04-14 10:50:00,
2013-04-14 05:53:00,44.6,39.5,29.90,SE,135,2.0,10.0,82,0.00,,OVC120,0.00,VWS V14.01,2013-04-14 10:53:00,
2013-04-14 05:58:00,44.6,39.5,29.90,SSW,211,3.0,11.0,82,0.00,,OVC120,0.00,VWS V14.01,2013-04-14 10:58:00,
2013-04-14 06:00:00,44.6,39.5,29.90,SSW,211,3.0,11.0,82,0.00,,CLR,0.00,VWS V14.01,2013-04-14 11:00:00,
2013-04-14 06:04:00,44.5,39.7,29.89,SE,131,5.0,10.0,83,0.00,,OVC080,0.00,VWS V14.01,2013-04-14 11:04:00,
2013-04-14 06:09:00,44.5,39.7,29.89,ESE,105,4.0,11.0,83,0.00,,OVC080,0.00,VWS V14.01,2013-04-14 11:09:00,
2013-04-14 06:10:00,44.5,39.7,29.89,ESE,121,11.0,11.0,83,0.00,,CLR,0.00,VWS V14.01,2013-04-14 11:10:00,
2013-04-14 06:14:00,44.4,39.6,29.88,East,80,2.0,11.0,83,0.00,,OVC080,0.00,VWS V14.01,2013-04-14 11:14:00,
2013-04-14 06:19:00,44.2,39.7,29.88,East,94,5.0,9.0,84,0.00,,OVC080,0.00,VWS V14.01,2013-04-14 11:19:00,
2013-04-14 06:20:00,44.3,39.8,29.88,SE,139,2.0,11.0,84,0.00,,CLR,0.00,VWS V14.01,2013-04-14 11:20:00,
2013-04-14 06:24:00,44.1,39.6,29.88,ESE,107,8.0,10.0,84,0.00,,BKN090,0.00,VWS V14.01,2013-04-14 11:24:00,
2013-04-14 06:29:00,44.0,39.8,29.87,East,89,6.0,7.0,85,0.00,,BKN090,0.00,VWS V14.01,2013-04-14 11:29:00,
2013-04-14 06:30:00,44.0,39.8,29.88,ESE,122,5.0,10.0,85,0.00,,CLR,0.00,VWS V14.01,2013-04-14 11:30:00,
2013-04-14 06:35:00,43.9,39.7,29.87,ESE,117,9.0,11.0,85,0.00,,BKN090,0.00,VWS V14.01,2013-04-14 11:35:00,
2013-04-14 06:40:00,43.9,39.7,29.87,South,190,5.0,7.0,85,0.00,,SCT120,0.00,VWS V14.01,2013-04-14 11:40:00,
2013-04-14 06:45:00,43.8,39.6,29.87,SE,143,6.0,10.0,85,0.00,,SCT120,0.00,VWS V14.01,2013-04-14 11:45:00,
2013-04-14 06:50:00,43.8,39.9,29.87,SSE,150,1.0,6.0,86,0.00,,SCT120,0.00,VWS V14.01,2013-04-14 11:50:00,
2013-04-14 06:55:00,43.7,39.8,29.87,SE,146,3.0,8.0,86,0.00,,SCT120,0.00,VWS V14.01,2013-04-14 11:55:00,
2013-04-14 07:00:00,43.7,39.8,29.87,ENE,77,5.0,8.0,86,0.00,,SCT120,0.00,VWS V14.01,2013-04-14 12:00:00,
2013-04-14 07:06:00,43.7,39.8,29.87,SE,124,6.0,12.0,86,0.00,,SCT120,0.00,VWS V14.01,2013-04-14 12:06:00,
2013-04-14 07:10:00,43.7,39.8,29.87,ESE,109,5.0,12.0,86,0.00,,CLR,0.00,VWS V14.01,2013-04-14 12:10:00,
2013-04-14 07:11:00,43.7,39.8,29.87,ESE,115,4.0,10.0,86,0.00,,SCT120,0.00,VWS V14.01,2013-04-14 12:11:00,
2013-04-14 07:16:00,43.8,39.9,29.87,SE,141,4.0,10.0,86,0.00,,SCT120,0.00,VWS V14.01,2013-04-14 12:16:00,
2013-04-14 07:20:00,43.9,40.0,29.87,ESE,117,9.0,11.0,86,0.00,,CLR,0.00,VWS V14.01,2013-04-14 12:20:00,
2013-04-14 07:21:00,44.0,40.1,29.87,SE,132,8.0,12.0,86,0.00,,SCT110,0.00,VWS V14.01,2013-04-14 12:21:00,
2013-04-14 07:26:00,44.2,40.3,29.87,ESE,120,5.0,12.0,86,0.00,,SCT110,0.00,VWS V14.01,2013-04-14 12:26:00,
2013-04-14 07:30:00,44.4,40.5,29.87,East,101,5.0,12.0,86,0.00,,CLR,0.00,VWS V14.01,2013-04-14 12:30:00,
2013-04-14 07:32:00,44.5,40.3,29.87,SSE,162,6.0,12.0,85,0.00,,SCT110,0.00,VWS V14.01,2013-04-14 12:32:00,
2013-04-14 07:37:00,44.8,40.6,29.87,ESE,122,6.0,13.0,85,0.00,,SCT110,0.00,VWS V14.01,2013-04-14 12:37:00,
2013-04-14 07:40:00,44.8,40.6,29.87,East,98,7.0,15.0,85,0.00,,CLR,0.00,VWS V14.01,2013-04-14 12:40:00,
2013-04-14 07:42:00,44.8,40.6,29.87,East,96,6.0,14.0,85,0.00,,BKN110,0.00,VWS V14.01,2013-04-14 12:42:00,
2013-04-14 07:47:00,44.9,40.7,29.88,SSE,155,9.0,14.0,85,0.00,,BKN110,0.00,VWS V14.01,2013-04-14 12:47:00,
2013-04-14 07:50:00,44.9,40.7,29.88,ESE,113,3.0,14.0,85,0.00,,CLR,0.00,VWS V14.01,2013-04-14 12:50:00,
2013-04-14 07:52:00,45.0,41.1,29.88,SSE,156,3.0,11.0,86,0.00,,BKN110,0.00,VWS V14.01,2013-04-14 12:52:00,
2013-04-14 07:57:00,45.2,41.3,29.88,SE,136,7.0,12.0,86,0.00,,BKN110,0.00,VWS V14.01,2013-04-14 12:57:00,
2013-04-14 08:00:00,45.2,41.0,29.88,SE,144,7.0,13.0,85,0.00,,CLR,0.00,VWS V14.01,2013-04-14 13:00:00,
2013-04-14 08:02:00,45.3,41.1,29.88,ESE,117,5.0,13.0,85,0.00,,BKN110,0.00,VWS V14.01,2013-04-14 13:02:00,
2013-04-14 08:07:00,45.6,41.4,29.89,South,179,6.0,13.0,85,0.00,,BKN110,0.00,VWS V14.01,2013-04-14 13:07:00,
2013-04-14 08:10:00,45.7,41.5,29.89,South,187,6.0,13.0,85,0.00,,CLR,0.00,VWS V14.01,2013-04-14 13:10:00,
2013-04-14 08:12:00,45.9,41.7,29.89,South,177,8.0,12.0,85,0.00,,BKN110,0.00,VWS V14.01,2013-04-14 13:12:00,
2013-04-14 08:18:00,46.3,41.7,29.89,South,175,10.0,12.0,84,0.00,,BKN110,0.00,VWS V14.01,2013-04-14 13:18:00,
2013-04-14 08:20:00,46.3,41.7,29.89,South,181,7.0,12.0,84,0.00,,CLR,0.00,VWS V14.01,2013-04-14 13:20:00,
2013-04-14 08:23:00,46.6,42.0,29.89,ESE,112,6.0,12.0,84,0.00,,BKN110,0.00,VWS V14.01,2013-04-14 13:23:00,
2013-04-14 08:28:00,47.1,42.2,29.89,South,191,8.0,12.0,83,0.00,,BKN110,0.00,VWS V14.01,2013-04-14 13:28:00,
2013-04-14 08:30:00,47.1,42.2,29.89,SSE,168,5.0,12.0,83,0.00,,CLR,0.00,VWS V14.01,2013-04-14 13:30:00,
2013-04-14 08:33:00,47.5,42.3,29.89,South,187,3.0,12.0,82,0.00,,BKN110,0.00,VWS V14.01,2013-04-14 13:33:00,
2013-04-14 08:39:00,48.0,42.5,29.89,South,169,6.0,6.0,81,0.00,,BKN110,0.00,VWS V14.01,2013-04-14 13:39:00,
2013-04-14 08:40:00,47.9,42.4,29.88,South,187,6.0,15.0,81,0.00,,CLR,0.00,VWS V14.01,2013-04-14 13:40:00,
2013-04-14 08:44:00,48.7,42.5,29.88,SE,138,5.0,13.0,79,0.00,,SCT120,0.00,VWS V14.01,2013-04-14 13:44:00,
2013-04-14 08:49:00,49.6,42.7,29.88,ESE,110,4.0,8.0,77,0.00,,SCT120,0.00,VWS V14.01,2013-04-14 13:49:00,
2013-04-14 08:50:00,49.5,42.6,29.88,SE,142,4.0,13.0,77,0.00,,CLR,0.00,VWS V14.01,2013-04-14 13:50:00,
2013-04-14 08:54:00,50.6,43.0,29.87,South,180,4.0,14.0,75,0.00,,SCT120,0.00,VWS V14.01,2013-04-14 13:54:00,
2013-04-14 08:59:00,51.6,43.2,29.88,South,178,9.0,11.0,73,0.00,,SCT120,0.00,VWS V14.01,2013-04-14 13:59:00,
2013-04-14 09:00:00,51.4,43.4,29.88,SSE,155,8.0,14.0,74,0.00,,CLR,0.00,VWS V14.01,2013-04-14 14:00:00,
2013-04-14 09:04:00,52.0,42.9,29.88,SSW,205,4.0,11.0,71,0.00,,SCT120,0.00,VWS V14.01,2013-04-14 14:04:00,
2013-04-14 09:10:00,52.1,43.0,29.87,ESE,105,9.0,12.0,71,0.00,,SCT120,0.00,VWS V14.01,2013-04-14 14:10:00,
2013-04-14 09:15:00,52.0,43.3,29.87,SSE,162,9.0,15.0,72,0.00,,SCT120,0.00,VWS V14.01,2013-04-14 14:15:00,
2013-04-14 09:20:00,52.2,43.5,29.87,SSW,204,5.0,10.0,72,0.00,,CLR,0.00,VWS V14.01,2013-04-14 14:20:00,
2013-04-14 09:25:00,52.3,43.5,29.86,East,82,11.0,13.0,72,0.00,,CLR,0.00,VWS V14.01,2013-04-14 14:25:00,
2013-04-14 09:30:00,52.5,44.1,29.86,South,178,4.0,7.0,73,0.00,,CLR,0.00,VWS V14.01,2013-04-14 14:30:00,
2013-04-14 09:35:00,52.8,44.0,29.86,SSE,153,6.0,7.0,72,0.00,,CLR,0.00,VWS V14.01,2013-04-14 14:35:00,
2013-04-14 09:40:00,53.3,44.5,29.86,ESE,102,5.0,7.0,72,0.00,,CLR,0.00,VWS V14.01,2013-04-14 14:40:00,
2013-04-14 09:45:00,53.8,44.3,29.86,SSW,193,5.0,9.0,70,0.00,,CLR,0.00,VWS V14.01,2013-04-14 14:45:00,
2013-04-14 09:50:00,54.1,44.5,29.86,SSE,160,4.0,6.0,70,0.00,,CLR,0.00,VWS V14.01,2013-04-14 14:50:00,
2013-04-14 09:56:00,54.3,44.7,29.85,SSE,160,5.0,8.0,70,0.00,,CLR,0.00,VWS V14.01,2013-04-14 14:56:00,
2013-04-14 10:00:00,54.5,45.3,29.85,SSE,153,5.0,8.0,71,0.00,,CLR,0.00,VWS V14.01,2013-04-14 15:00:00,
2013-04-14 10:01:00,54.9,45.3,29.85,SSE,148,2.0,6.0,70,0.00,,CLR,0.00,VWS V14.01,2013-04-14 15:01:00,
2013-04-14 10:06:00,55.9,45.1,29.85,SSE,166,9.0,10.0,67,0.00,,CLR,0.00,VWS V14.01,2013-04-14 15:06:00,
2013-04-14 10:10:00,56.2,45.0,29.85,SSE,158,4.0,10.0,66,0.00,,CLR,0.00,VWS V14.01,2013-04-14 15:10:00,
2013-04-14 10:12:00,57.1,46.7,29.85,SE,129,6.0,10.0,68,0.00,,CLR,0.00,VWS V14.01,2013-04-14 15:12:00,
2013-04-14 10:17:00,58.0,45.5,29.85,South,180,7.0,11.0,63,0.00,,CLR,0.00,VWS V14.01,2013-04-14 15:17:00,
2013-04-14 10:20:00,58.1,45.6,29.85,South,187,11.0,11.0,63,0.00,,CLR,0.00,VWS V14.01,2013-04-14 15:20:00,
2013-04-14 10:22:00,58.2,46.1,29.84,SSW,198,1.0,14.0,64,0.00,,CLR,0.00,VWS V14.01,2013-04-14 15:22:00,
2013-04-14 10:27:00,58.8,45.8,29.84,South,186,8.0,14.0,62,0.00,,CLR,0.00,VWS V14.01,2013-04-14 15:27:00,
2013-04-14 10:30:00,58.9,45.9,29.84,SW,222,4.0,14.0,62,0.00,,CLR,0.00,VWS V14.01,2013-04-14 15:30:00,
2013-04-14 10:32:00,59.3,47.5,29.83,SSW,204,3.0,13.0,65,0.00,,CLR,0.00,VWS V14.01,2013-04-14 15:32:00,
2013-04-14 10:37:00,60.3,46.8,29.83,SSE,150,6.0,13.0,61,0.00,,CLR,0.00,VWS V14.01,2013-04-14 15:37:00,
2013-04-14 10:40:00,60.3,46.8,29.83,SSE,153,9.0,13.0,61,0.00,,CLR,0.00,VWS V14.01,2013-04-14 15:40:00,
2013-04-14 10:43:00,60.5,47.0,29.83,SSW,193,6.0,9.0,61,0.00,,CLR,0.00,VWS V14.01,2013-04-14 15:43:00,
2013-04-14 10:48:00,61.1,47.6,29.83,West,259,2.0,13.0,61,0.00,,CLR,0.00,VWS V14.01,2013-04-14 15:48:00,
2013-04-14 10:50:00,61.2,47.7,29.83,West,266,1.0,13.0,61,0.00,,CLR,0.00,VWS V14.01,2013-04-14 15:50:00,
2013-04-14 10:53:00,62.0,48.4,29.84,WSW,253,8.0,13.0,61,0.00,,CLR,0.00,VWS V14.01,2013-04-14 15:53:00,
2013-04-14 10:58:00,62.6,48.1,29.83,SSE,152,7.0,17.0,59,0.00,,CLR,0.00,VWS V14.01,2013-04-14 15:58:00,
2013-04-14 11:00:00,62.6,48.1,29.83,SSW,193,8.0,17.0,59,0.00,,CLR,0.00,VWS V14.01,2013-04-14 16:00:00,
2013-04-14 11:03:00,63.0,48.5,29.82,South,188,10.0,13.0,59,0.00,,CLR,0.00,VWS V14.01,2013-04-14 16:03:00,
2013-04-14 11:09:00,63.7,49.1,29.82,SSE,148,11.0,11.0,59,0.00,,CLR,0.00,VWS V14.01,2013-04-14 16:09:00,
2013-04-14 11:10:00,63.7,49.1,29.82,South,170,11.0,14.0,59,0.00,,CLR,0.00,VWS V14.01,2013-04-14 16:10:00,
2013-04-14 11:14:00,64.2,49.6,29.82,SSW,204,11.0,13.0,59,0.00,,CLR,0.00,VWS V14.01,2013-04-14 16:14:00,
2013-04-14 11:19:00,64.6,49.5,29.82,SSW,212,5.0,11.0,58,0.00,,CLR,0.00,VWS V14.01,2013-04-14 16:19:00,
2013-04-14 11:20:00,64.5,49.4,29.82,SSW,206,6.0,14.0,58,0.00,,CLR,0.00,VWS V14.01,2013-04-14 16:20:00,
2013-04-14 11:24:00,65.5,49.9,29.81,SSW,196,7.0,11.0,57,0.00,,CLR,0.00,VWS V14.01,2013-04-14 16:24:00,
2013-04-14 11:29:00,66.1,49.0,29.81,SE,142,7.0,13.0,54,0.00,,CLR,0.00,VWS V14.01,2013-04-14 16:29:00,
2013-04-14 11:30:00,66.0,49.4,29.81,SSW,195,9.0,11.0,55,0.00,,CLR,0.00,VWS V14.01,2013-04-14 16:30:00,
2013-04-14 11:35:00,66.3,50.2,29.81,SW,214,8.0,14.0,56,0.00,,CLR,0.00,VWS V14.01,2013-04-14 16:35:00,
2013-04-14 11:40:00,66.2,49.1,29.81,ENE,70,8.0,15.0,54,0.00,,CLR,0.00,VWS V14.01,2013-04-14 16:40:00,
2013-04-14 11:45:00,66.5,49.8,29.80,South,191,4.0,15.0,55,0.00,,CLR,0.00,VWS V14.01,2013-04-14 16:45:00,
2013-04-14 11:50:00,67.6,51.4,29.80,SW,222,4.0,8.0,56,0.00,,CLR,0.00,VWS V14.01,2013-04-14 16:50:00,
2013-04-14 11:56:00,67.7,49.5,29.79,South,170,8.0,16.0,52,0.00,,CLR,0.00,VWS V14.01,2013-04-14 16:56:00,
2013-04-14 12:00:00,67.5,49.3,29.79,SW,224,9.0,21.0,52,0.00,,CLR,0.00,VWS V14.01,2013-04-14 17:00:00,
2013-04-14 12:01:00,67.6,50.4,29.79,SE,145,12.0,14.0,54,0.00,,CLR,0.00,VWS V14.01,2013-04-14 17:01:00,
2013-04-14 12:06:00,68.1,50.3,29.78,SSW,212,12.0,14.0,53,0.00,,CLR,0.00,VWS V14.01,2013-04-14 17:06:00,
2013-04-14 12:10:00,68.2,50.4,29.78,SW,233,5.0,16.0,53,0.00,,CLR,0.00,VWS V14.01,2013-04-14 17:10:00,
2013-04-14 12:11:00,68.0,50.2,29.78,SW,224,4.0,15.0,53,0.00,,CLR,0.00,VWS V14.01,2013-04-14 17:11:00,
2013-04-14 12:16:00,68.0,50.2,29.77,ESE,114,8.0,19.0,53,0.00,,CLR,0.00,VWS V14.01,2013-04-14 17:16:00,
2013-04-14 12:20:00,67.9,50.7,29.77,SSW,194,17.0,19.0,54,0.00,,CLR,0.00,VWS V14.01,2013-04-14 17:20:00,
2013-04-14 12:21:00,67.9,51.2,29.77,South,186,5.0,19.0,55,0.00,,CLR,0.00,VWS V14.01,2013-04-14 17:21:00,
2013-04-14 12:26:00,68.1,51.3,29.77,SW,224,5.0,19.0,55,0.00,,CLR,0.00,VWS V14.01,2013-04-14 17:26:00,
2013-04-14 12:30:00,68.5,51.7,29.77,South,184,10.0,19.0,55,0.00,,CLR,0.00,VWS V14.01,2013-04-14 17:30:00,
2013-04-14 12:32:00,68.7,50.9,29.76,SSW,211,13.0,18.0,53,0.00,,CLR,0.00,VWS V14.01,2013-04-14 17:32:00,
2013-04-14 12:37:00,69.1,51.8,29.76,South,191,8.0,18.0,54,0.00,,CLR,0.00,VWS V14.01,2013-04-14 17:37:00,
2013-04-14 12:40:00,69.2,51.4,29.76,South,177,11.0,18.0,53,0.00,,CLR,0.00,VWS V14.01,2013-04-14 17:40:00,
2013-04-14 12:42:00,69.4,52.5,29.76,SW,231,9.0,15.0,55,0.00,,CLR,0.00,VWS V14.01,2013-04-14 17:42:00,
2013-04-14 12:47:00,69.9,52.5,29.75,WSW,246,3.0,17.0,54,0.00,,CLR,0.00,VWS V14.01,2013-04-14 17:47:00,
2013-04-14 12:50:00,70.1,52.2,29.75,SSE,156,5.0,17.0,53,0.00,,CLR,0.00,VWS V14.01,2013-04-14 17:50:00,
2013-04-14 12:53:00,71.0,52.0,29.75,SW,215,5.0,10.0,51,0.00,,CLR,0.00,VWS V14.01,2013-04-14 17:53:00,
2013-04-14 12:58:00,70.8,52.3,29.75,SW,215,6.0,17.0,52,0.00,,CLR,0.00,VWS V14.01,2013-04-14 17:58:00,
2013-04-14 13:00:00,70.9,52.9,29.75,SW,225,4.0,17.0,53,0.00,,CLR,0.00,VWS V14.01,2013-04-14 18:00:00,
2013-04-14 13:03:00,71.3,52.3,29.74,WSW,246,8.0,16.0,51,0.00,,CLR,0.00,VWS V14.01,2013-04-14 18:03:00,
2013-04-14 13:08:00,71.8,51.1,29.74,WNW,298,5.0,16.0,48,0.00,,CLR,0.00,VWS V14.01,2013-04-14 18:08:00,
2013-04-14 13:10:00,71.8,51.1,29.74,South,172,4.0,16.0,48,0.00,,CLR,0.00,VWS V14.01,2013-04-14 18:10:00,
2013-04-14 13:13:00,72.2,52.5,29.74,West,262,6.0,12.0,50,0.00,,CLR,0.00,VWS V14.01,2013-04-14 18:13:00,
2013-04-14 13:18:00,72.4,52.2,29.74,SSW,206,6.0,13.0,49,0.00,,CLR,0.00,VWS V14.01,2013-04-14 18:18:00,
2013-04-14 13:20:00,72.4,52.2,29.74,SSW,206,6.0,13.0,49,0.00,,CLR,0.00,VWS V14.01,2013-04-14 18:20:00,
2013-04-14 13:24:00,73.0,52.7,29.74,SSW,197,9.0,14.0,49,0.00,,CLR,0.00,VWS V14.01,2013-04-14 18:24:00,
2013-04-14 13:29:00,73.1,52.8,29.74,SW,214,5.0,8.0,49,0.00,,CLR,0.00,VWS V14.01,2013-04-14 18:29:00,
2013-04-14 13:30:00,73.1,52.8,29.73,SE,128,8.0,14.0,49,0.00,,CLR,0.00,VWS V14.01,2013-04-14 18:30:00,
2013-04-14 13:34:00,72.5,51.7,29.73,SSW,205,6.0,17.0,48,0.00,,CLR,0.00,VWS V14.01,2013-04-14 18:34:00,
2013-04-14 13:39:00,72.4,51.6,29.73,SSE,155,6.0,14.0,48,0.00,,CLR,0.00,VWS V14.01,2013-04-14 18:39:00,
2013-04-14 13:40:00,72.4,51.6,29.73,SSW,195,7.0,20.0,48,0.00,,CLR,0.00,VWS V14.01,2013-04-14 18:40:00,
2013-04-14 13:44:00,72.7,51.3,29.72,SSW,194,8.0,16.0,47,0.00,,CLR,0.00,VWS V14.01,2013-04-14 18:44:00,
2013-04-14 13:50:00,72.9,50.3,29.73,SSW,210,6.0,23.0,45,0.00,,CLR,0.00,VWS V14.01,2013-04-14 18:50:00,
2013-04-14 13:55:00,73.0,50.4,29.72,SSE,153,8.0,23.0,45,0.00,,CLR,0.00,VWS V14.01,2013-04-14 18:55:00,
2013-04-14 14:00:00,72.9,50.3,29.72,SW,217,8.0,21.0,45,0.00,,CLR,0.00,VWS V14.01,2013-04-14 19:00:00,
2013-04-14 14:05:00,73.2,50.0,29.72,SSE,168,13.0,21.0,44,0.00,,CLR,0.00,VWS V14.01,2013-04-14 19:05:00,
2013-04-14 14:10:00,73.3,50.1,29.71,South,173,18.0,21.0,44,0.00,,CLR,0.00,VWS V14.01,2013-04-14 19:10:00,
2013-04-14 14:11:00,73.2,51.2,29.71,SW,229,13.0,18.0,46,0.00,,CLR,0.00,VWS V14.01,2013-04-14 19:11:00,
2013-04-14 14:16:00,73.2,51.2,29.71,SW,228,6.0,25.0,46,0.00,,CLR,0.00,VWS V14.01,2013-04-14 19:16:00,
2013-04-14 14:20:00,73.6,51.6,29.71,West,262,3.0,25.0,46,0.00,,CLR,0.00,VWS V14.01,2013-04-14 19:20:00,
2013-04-14 14:21:00,73.7,51.1,29.71,West,265,4.0,19.0,45,0.00,,CLR,0.00,VWS V14.01,2013-04-14 19:21:00,
2013-04-14 14:26:00,74.1,50.8,29.70,SSW,211,7.0,19.0,44,0.00,,CLR,0.00,VWS V14.01,2013-04-14 19:26:00,
2013-04-14 14:30:00,74.1,50.8,29.70,SSW,193,9.0,19.0,44,0.00,,CLR,0.00,VWS V14.01,2013-04-14 19:30:00,
2013-04-14 14:32:00,74.2,50.3,29.70,WSW,245,5.0,14.0,43,0.00,,CLR,0.00,VWS V14.01,2013-04-14 19:32:00,
2013-04-14 14:37:00,74.2,51.5,29.70,SSW,211,10.0,16.0,45,0.00,,CLR,0.00,VWS V14.01,2013-04-14 19:37:00,
2013-04-14 14:40:00,74.2,50.3,29.70,SSE,150,13.0,16.0,43,0.00,,CLR,0.00,VWS V14.01,2013-04-14 19:40:00,
2013-04-14 14:42:00,73.9,50.6,29.70,South,175,5.0,21.0,44,0.00,,CLR,0.00,VWS V14.01,2013-04-14 19:42:00,
2013-04-14 14:47:00,74.0,50.7,29.69,SSW,195,15.0,21.0,44,0.00,,CLR,0.00,VWS V14.01,2013-04-14 19:47:00,
2013-04-14 14:50:00,74.0,50.1,29.70,SSE,165,6.0,21.0,43,0.00,,CLR,0.00,VWS V14.01,2013-04-14 19:50:00,
2013-04-14 14:52:00,74.3,50.4,29.69,South,187,11.0,17.0,43,0.00,,CLR,0.00,VWS V14.01,2013-04-14 19:52:00,
2013-04-14 14:58:00,74.1,50.2,29.69,SSW,204,13.0,18.0,43,0.00,,CLR,0.00,VWS V14.01,2013-04-14 19:58:00,
2013-04-14 15:00:00,74.1,50.8,29.69,SSW,210,9.0,19.0,44,0.00,,CLR,0.00,VWS V14.01,2013-04-14 20:00:00,
2013-04-14 15:03:00,74.3,50.4,29.69,SSE,163,7.0,15.0,43,0.00,,CLR,0.00,VWS V14.01,2013-04-14 20:03:00,
2013-04-14 15:08:00,74.8,50.8,29.69,South,169,8.0,15.0,43,0.00,,CLR,0.00,VWS V14.01,2013-04-14 20:08:00,
2013-04-14 15:10:00,74.8,50.8,29.69,South,186,8.0,15.0,43,0.00,,CLR,0.00,VWS V14.01,2013-04-14 20:10:00,
2013-04-14 15:13:00,75.0,51.0,29.68,SSW,197,7.0,16.0,43,0.00,,CLR,0.00,VWS V14.01,2013-04-14 20:13:00,
2013-04-14 15:18:00,75.2,49.9,29.68,WSW,244,3.0,21.0,41,0.00,,CLR,0.00,VWS V14.01,2013-04-14 20:18:00,
2013-04-14 15:20:00,75.2,50.6,29.68,West,263,3.0,21.0,42,0.00,,CLR,0.00,VWS V14.01,2013-04-14 20:20:00,
2013-04-14 15:23:00,75.1,50.5,29.68,SSW,201,9.0,15.0,42,0.00,,CLR,0.00,VWS V14.01,2013-04-14 20:23:00,
2013-04-14 15:28:00,74.8,49.5,29.67,SSW,210,11.0,14.0,41,0.00,,CLR,0.00,VWS V14.01,2013-04-14 20:28:00,
2013-04-14 15:30:00,74.8,49.5,29.67,SE,146,14.0,18.0,41,0.00,,CLR,0.00,VWS V14.01,2013-04-14 20:30:00,
2013-04-14 15:34:00,74.3,49.1,29.67,South,177,10.0,17.0,41,0.00,,CLR,0.00,VWS V14.01,2013-04-14 20:34:00,
2013-04-14 15:39:00,74.2,50.3,29.67,SSW,207,7.0,12.0,43,0.00,,CLR,0.00,VWS V14.01,2013-04-14 20:39:00,
2013-04-14 15:40:00,74.2,49.7,29.66,West,262,5.0,17.0,42,0.00,,CLR,0.00,VWS V14.01,2013-04-14 20:40:00,
2013-04-14 15:44:00,74.8,50.8,29.66,South,176,12.0,14.0,43,0.00,,CLR,0.00,VWS V14.01,2013-04-14 20:44:00,
2013-04-14 15:49:00,74.5,49.9,29.66,SSE,160,7.0,17.0,42,0.00,,CLR,0.00,VWS V14.01,2013-04-14 20:49:00,
2013-04-14 15:50:00,74.6,50.0,29.66,SSW,207,9.0,25.0,42,0.00,,CLR,0.00,VWS V14.01,2013-04-14 20:50:00,
2013-04-14 15:54:00,74.2,49.7,29.66,SW,226,14.0,25.0,42,0.00,,CLR,0.00,VWS V14.01,2013-04-14 20:54:00,
2013-04-14 15:59:00,73.9,50.0,29.65,SSW,210,4.0,10.0,43,0.00,,CLR,0.00,VWS V14.01,2013-04-14 20:59:00,
2013-04-14 16:00:00,73.9,50.0,29.65,SSW,197,10.0,25.0,43,0.00,,CLR,0.00,VWS V14.01,2013-04-14 21:00:00,
2013-04-14 16:04:00,74.4,51.1,29.66,SSW,200,2.0,16.0,44,0.00,,CLR,0.00,VWS V14.01,2013-04-14 21:04:00,
2013-04-14 16:10:00,74.8,50.8,29.65,SSW,194,13.0,16.0,43,0.00,,CLR,0.00,VWS V14.01,2013-04-14 21:10:00,
2013-04-14 16:15:00,74.5,49.9,29.65,SSW,197,6.0,18.0,42,0.00,,CLR,0.00,VWS V14.01,2013-04-14 21:15:00,
2013-04-14 16:20:00,74.2,49.7,29.65,South,190,8.0,17.0,42,0.00,,CLR,0.00,VWS V14.01,2013-04-14 21:20:00,
2013-04-14 16:25:00,74.1,49.6,29.65,SW,217,14.0,24.0,42,0.00,,CLR,0.00,VWS V14.01,2013-04-14 21:25:00,
2013-04-14 16:30:00,74.1,49.6,29.65,South,179,12.0,21.0,42,0.00,,CLR,0.00,VWS V14.01,2013-04-14 21:30:00,
2013-04-14 16:35:00,74.5,49.9,29.65,SSE,155,7.0,21.0,42,0.00,,CLR,0.00,VWS V14.01,2013-04-14 21:35:00,
2013-04-14 16:40:00,74.6,49.4,29.64,WSW,242,6.0,22.0,41,0.00,,CLR,0.00,VWS V14.01,2013-04-14 21:40:00,
2013-04-14 16:46:00,74.5,49.3,29.64,WSW,239,3.0,22.0,41,0.00,,CLR,0.00,VWS V14.01,2013-04-14 21:46:00,
2013-04-14 16:50:00,74.7,48.8,29.64,South,183,11.0,22.0,40,0.00,,CLR,0.00,VWS V14.01,2013-04-14 21:50:00,
2013-04-14 16:51:00,74.7,48.8,29.64,South,180,13.0,22.0,40,0.00,,CLR,0.00,VWS V14.01,2013-04-14 21:51:00,
2013-04-14 16:56:00,74.6,48.0,29.64,SSE,155,4.0,22.0,39,0.00,,CLR,0.00,VWS V14.01,2013-04-14 21:56:00,
2013-04-14 17:00:00,74.6,48.0,29.64,West,269,9.0,27.0,39,0.00,,CLR,0.00,VWS V14.01,2013-04-14 22:00:00,
2013-04-14 17:02:00,74.4,48.5,29.64,SW,214,10.0,24.0,40,0.00,,CLR,0.00,VWS V14.01,2013-04-14 22:02:00,
2013-04-14 17:07:00,74.3,47.1,29.64,ESE,110,9.0,27.0,38,0.00,,CLR,0.00,VWS V14.01,2013-04-14 22:07:00,
2013-04-14 17:10:00,74.3,47.8,29.64,SSW,205,22.0,34.0,39,0.00,,CLR,0.00,VWS V14.01,2013-04-14 22:10:00,
2013-04-14 17:12:00,74.2,47.7,29.64,SW,215,9.0,25.0,39,0.00,,CLR,0.00,VWS V14.01,2013-04-14 22:12:00,
2013-04-14 17:17:00,74.2,48.3,29.64,SSW,204,8.0,30.0,40,0.00,,CLR,0.00,VWS V14.01,2013-04-14 22:17:00,
2013-04-14 17:20:00,74.2,48.3,29.64,SW,232,7.0,30.0,40,0.00,,CLR,0.00,VWS V14.01,2013-04-14 22:20:00,
2013-04-14 17:22:00,74.1,48.3,29.64,West,260,8.0,29.0,40,0.00,,CLR,0.00,VWS V14.01,2013-04-14 22:22:00,
2013-04-14 17:27:00,74.0,49.5,29.64,South,186,9.0,29.0,42,0.00,,CLR,0.00,VWS V14.01,2013-04-14 22:27:00,
2013-04-14 17:30:00,74.0,48.8,29.64,SSW,203,14.0,29.0,41,0.00,,CLR,0.00,VWS V14.01,2013-04-14 22:30:00,
2013-04-14 17:32:00,74.1,48.3,29.64,SSE,160,9.0,14.0,40,0.00,,CLR,0.00,VWS V14.01,2013-04-14 22:32:00,
2013-04-14 17:37:00,73.9,48.1,29.64,SW,217,8.0,26.0,40,0.00,,CLR,0.00,VWS V14.01,2013-04-14 22:37:00,
2013-04-14 17:40:00,73.9,47.4,29.64,South,191,7.0,26.0,39,0.00,,CLR,0.00,VWS V14.01,2013-04-14 22:40:00,
2013-04-14 17:43:00,73.9,46.7,29.64,SSW,202,7.0,20.0,38,0.00,,CLR,0.00,VWS V14.01,2013-04-14 22:43:00,
2013-04-14 17:48:00,73.7,47.2,29.63,SSW,194,8.0,21.0,39,0.00,,CLR,0.00,VWS V14.01,2013-04-14 22:48:00,
2013-04-14 17:50:00,73.7,47.2,29.63,South,183,11.0,21.0,39,0.00,,CLR,0.00,VWS V14.01,2013-04-14 22:50:00,
2013-04-14 17:53:00,73.4,47.0,29.63,SW,224,3.0,24.0,39,0.00,,CLR,0.00,VWS V14.01,2013-04-14 22:53:00,
2013-04-14 17:58:00,73.1,47.4,29.63,SSE,147,9.0,24.0,40,0.00,,CLR,0.00,VWS V14.01,2013-04-14 22:58:00,
2013-04-14 18:00:00,73.1,47.4,29.63,SSW,194,12.0,24.0,40,0.00,,CLR,0.00,VWS V14.01,2013-04-14 23:00:00,
2013-04-14 18:03:00,73.1,47.4,29.63,SE,140,7.0,16.0,40,0.00,,CLR,0.00,VWS V14.01,2013-04-14 23:03:00,
2013-04-14 18:08:00,72.8,47.8,29.63,SE,129,14.0,16.0,41,0.00,,CLR,0.00,VWS V14.01,2013-04-14 23:08:00,
2013-04-14 18:10:00,72.8,47.8,29.63,SW,221,10.0,16.0,41,0.00,,CLR,0.00,VWS V14.01,2013-04-14 23:10:00,
2013-04-14 18:13:00,72.5,48.1,29.63,SSW,193,12.0,15.0,42,0.00,,CLR,0.00,VWS V14.01,2013-04-14 23:13:00,
2013-04-14 18:19:00,72.3,47.3,29.63,SSE,153,9.0,13.0,41,0.00,,CLR,0.00,VWS V14.01,2013-04-14 23:19:00,
2013-04-14 18:20:00,72.3,48.0,29.63,SSE,158,13.0,19.0,42,0.00,,CLR,0.00,VWS V14.01,2013-04-14 23:20:00,
2013-04-14 18:24:00,72.0,47.7,29.63,SW,222,10.0,17.0,42,0.00,,CLR,0.00,VWS V14.01,2013-04-14 23:24:00,
2013-04-14 18:29:00,71.7,48.0,29.63,South,189,11.0,11.0,43,0.00,,CLR,0.00,VWS V14.01,2013-04-14 23:29:00,
2013-04-14 18:30:00,71.7,47.4,29.63,WSW,242,3.0,17.0,42,0.00,,CLR,0.00,VWS V14.01,2013-04-14 23:30:00,
2013-04-14 18:34:00,71.5,47.2,29.64,SSW,208,16.0,17.0,42,0.00,,CLR,0.00,VWS V14.01,2013-04-14 23:34:00,
2013-04-14 18:40:00,71.4,47.1,29.64,SW,228,9.0,14.0,42,0.00,,CLR,0.00,VWS V14.01,2013-04-14 23:40:00,
2013-04-14 18:45:00,71.2,47.6,29.64,South,176,10.0,16.0,43,0.00,,CLR,0.00,VWS V14.01,2013-04-14 23:45:00,
2013-04-14 18:50:00,71.0,48.0,29.63,South,179,8.0,9.0,44,0.00,,CLR,0.00,VWS V14.01,2013-04-14 23:50:00,
2013-04-14 18:55:00,70.7,48.9,29.63,SSW,198,7.0,16.0,46,0.00,,CLR,0.00,VWS V14.01,2013-04-14 23:55:00,
2013-04-14 19:00:00,70.6,49.4,29.63,SW,214,8.0,12.0,47,0.00,,CLR,0.00,VWS V14.01,2013-04-15 00:00:00,
2013-04-14 19:05:00,70.4,50.3,29.63,South,176,3.0,15.0,49,0.00,,CLR,0.00,VWS V14.01,2013-04-15 00:05:00,
2013-04-14 19:10:00,70.3,50.3,29.63,SW,224,11.0,16.0,49,0.00,,CLR,0.00,VWS V14.01,2013-04-15 00:10:00,
2013-04-14 19:11:00,70.2,50.7,29.63,SW,226,7.0,11.0,50,0.00,,CLR,0.00,VWS V14.01,2013-04-15 00:11:00,
2013-04-14 19:16:00,70.1,50.6,29.63,SW,224,3.0,14.0,50,0.00,,CLR,0.00,VWS V14.01,2013-04-15 00:16:00,
2013-04-14 19:20:00,69.9,50.4,29.63,South,187,10.0,14.0,50,0.00,,CLR,0.00,VWS V14.01,2013-04-15 00:20:00,
2013-04-14 19:21:00,69.8,50.3,29.63,SSW,204,9.0,13.0,50,0.00,,CLR,0.00,VWS V14.01,2013-04-15 00:21:00,
2013-04-14 19:26:00,69.7,50.8,29.63,South,191,9.0,17.0,51,0.00,,CLR,0.00,VWS V14.01,2013-04-15 00:26:00,
2013-04-14 19:30:00,69.6,50.7,29.63,SSW,200,3.0,17.0,51,0.00,,CLR,0.00,VWS V14.01,2013-04-15 00:30:00,
2013-04-14 19:32:00,69.4,50.5,29.63,SSW,193,7.0,9.0,51,0.00,,CLR,0.00,VWS V14.01,2013-04-15 00:32:00,
2013-04-14 19:37:00,69.2,50.8,29.63,WSW,238,5.0,13.0,52,0.00,,CLR,0.00,VWS V14.01,2013-04-15 00:37:00,
2013-04-14 19:40:00,69.1,50.8,29.63,SSE,148,8.0,13.0,52,0.00,,CLR,0.00,VWS V14.01,2013-04-15 00:40:00,
2013-04-14 19:42:00,69.0,50.7,29.63,South,188,8.0,16.0,52,0.00,,CLR,0.00,VWS V14.01,2013-04-15 00:42:00,
2013-04-14 19:47:00,68.8,50.5,29.63,South,178,7.0,16.0,52,0.00,,CLR,0.00,VWS V14.01,2013-04-15 00:47:00,
2013-04-14 19:50:00,68.8,50.5,29.63,SSW,197,13.0,16.0,52,0.00,,CLR,0.00,VWS V14.01,2013-04-15 00:50:00,
2013-04-14 19:52:00,68.8,51.0,29.63,SW,218,6.0,17.0,53,0.00,,CLR,0.00,VWS V14.01,2013-04-15 00:52:00,
2013-04-14 19:58:00,68.6,50.8,29.63,WSW,248,4.0,17.0,53,0.00,,CLR,0.00,VWS V14.01,2013-04-15 00:58:00,
2013-04-14 20:00:00,68.5,50.7,29.63,SW,232,5.0,17.0,53,0.00,,CLR,0.00,VWS V14.01,2013-04-15 01:00:00,
2013-04-14 20:03:00,68.4,50.1,29.63,SSE,148,6.0,19.0,52,0.00,,CLR,0.00,VWS V14.01,2013-04-15 01:03:00,
2013-04-14 20:08:00,68.2,50.4,29.63,SSE,162,10.0,19.0,53,0.00,,CLR,0.00,VWS V14.01,2013-04-15 01:08:00,
2013-04-14 20:10:00,68.2,50.4,29.63,SW,217,8.0,19.0,53,0.00,,CLR,0.00,VWS V14.01,2013-04-15 01:10:00,
2013-04-14 20:13:00,68.2,50.4,29.63,ESE,116,5.0,15.0,53,0.00,,CLR,0.00,VWS V14.01,2013-04-15 01:13:00,
2013-04-14 20:18:00,68.0,50.2,29.63,SSW,209,11.0,20.0,53,0.00,,CLR,0.00,VWS V14.01,2013-04-15 01:18:00,
2013-04-14 20:20:00,68.0,50.2,29.63,SSW,209,11.0,20.0,53,0.00,,CLR,0.00,VWS V14.01,2013-04-15 01:20:00,
2013-04-14 20:24:00,67.8,50.1,29.64,South,190,7.0,18.0,53,0.00,,CLR,0.00,VWS V14.01,2013-04-15 01:24:00,
2013-04-14 20:29:00,67.7,50.5,29.64,SSW,198,6.0,16.0,54,0.00,,CLR,0.00,VWS V14.01,2013-04-15 01:29:00,
2013-04-14 20:30:00,67.7,50.5,29.64,SSW,210,16.0,18.0,54,0.00,,CLR,0.00,VWS V14.01,2013-04-15 01:30:00,
2013-04-14 20:34:00,67.6,50.4,29.64,WSW,238,5.0,17.0,54,0.00,,CLR,0.00,VWS V14.01,2013-04-15 01:34:00,
2013-04-14 20:39:00,67.5,50.3,29.64,West,259,4.0,14.0,54,0.00,,CLR,0.00,VWS V14.01,2013-04-15 01:39:00,
2013-04-14 20:40:00,67.5,50.3,29.64,SW,228,6.0,21.0,54,0.00,,CLR,0.00,VWS V14.01,2013-04-15 01:40:00,
2013-04-14 20:44:00,67.3,50.6,29.65,WSW,239,3.0,16.0,55,0.00,,SCT120,0.00,VWS V14.01,2013-04-15 01:44:00,
2013-04-14 20:49:00,67.2,50.5,29.65,SSW,193,7.0,9.0,55,0.00,,SCT120,0.00,VWS V14.01,2013-04-15 01:49:00,
2013-04-14 20:50:00,67.2,50.5,29.65,SSW,201,2.0,16.0,55,0.00,,CLR,0.00,VWS V14.01,2013-04-15 01:50:00,
2013-04-14 20:54:00,67.2,51.0,29.65,South,177,14.0,19.0,56,0.00,,SCT120,0.00,VWS V14.01,2013-04-15 01:54:00,
2013-04-14 20:59:00,67.3,51.1,29.65,SW,233,12.0,13.0,56,0.00,,SCT120,0.00,VWS V14.01,2013-04-15 01:59:00,
2013-04-14 21:00:00,67.4,51.2,29.65,South,188,7.0,21.0,56,0.00,,CLR,0.00,VWS V14.01,2013-04-15 02:00:00,
2013-04-14 21:04:00,67.2,51.5,29.65,SW,229,6.0,15.0,57,0.00,,BKN120,0.00,VWS V14.01,2013-04-15 02:04:00,
2013-04-14 21:10:00,67.2,51.9,29.65,South,190,4.0,11.0,58,0.00,,BKN120,0.00,VWS V14.01,2013-04-15 02:10:00,
2013-04-14 21:15:00,67.2,52.4,29.65,WSW,242,10.0,26.0,59,0.00,,BKN120,0.00,VWS V14.01,2013-04-15 02:15:00,
2013-04-14 21:20:00,67.5,52.7,29.65,SSW,198,10.0,25.0,59,0.00,,BKN120,0.00,VWS V14.01,2013-04-15 02:20:00,
2013-04-14 21:25:00,67.5,52.7,29.66,SW,233,8.0,25.0,59,0.00,,BKN120,0.00,VWS V14.01,2013-04-15 02:25:00,
2013-04-14 21:30:00,67.6,53.2,29.66,WSW,250,9.0,25.0,60,0.00,,CLR,0.00,VWS V14.01,2013-04-15 02:30:00,
2013-04-14 21:31:00,67.6,53.2,29.65,South,179,11.0,16.0,60,0.00,,BKN120,0.00,VWS V14.01,2013-04-15 02:31:00,
2013-04-14 21:36:00,67.5,53.6,29.66,South,179,6.0,18.0,61,0.00,,BKN120,0.00,VWS V14.01,2013-04-15 02:36:00,
2013-04-14 21:40:00,67.4,53.5,29.66,South,173,8.0,18.0,61,0.00,,CLR,0.00,VWS V14.01,2013-04-15 02:40:00,
2013-04-14 21:42:00,67.3,53.4,29.66,SSW,203,3.0,19.0,61,0.00,,BKN120,0.00,VWS V14.01,2013-04-15 02:42:00,
2013-04-14 21:47:00,67.3,53.4,29.66,SSW,211,5.0,20.0,61,0.00,,BKN120,0.00,VWS V14.01,2013-04-15 02:47:00,
2013-04-14 21:50:00,67.3,53.4,29.66,SSW,200,10.0,20.0,61,0.00,,CLR,0.00,VWS V14.01,2013-04-15 02:50:00,
2013-04-14 21:52:00,67.2,53.8,29.65,WSW,249,5.0,19.0,62,0.00,,BKN120,0.00,VWS V14.01,2013-04-15 02:52:00,
2013-04-14 21:57:00,67.1,53.7,29.66,SW,219,10.0,19.0,62,0.00,,BKN120,0.00,VWS V14.01,2013-04-15 02:57:00,
2013-04-14 22:00:00,67.1,53.7,29.66,South,183,13.0,20.0,62,0.00,,CLR,0.00,VWS V14.01,2013-04-15 03:00:00,
2013-04-14 22:02:00,67.1,53.7,29.66,WSW,243,4.0,22.0,62,0.00,,SCT120,0.00,VWS V14.01,2013-04-15 03:02:00,
2013-04-14 22:07:00,67.1,53.7,29.67,SSW,210,6.0,24.0,62,0.00,,SCT120,0.00,VWS V14.01,2013-04-15 03:07:00,
2013-04-14 22:10:00,67.1,54.1,29.67,WSW,240,14.0,27.0,63,0.00,,CLR,0.00,VWS V14.01,2013-04-15 03:10:00,
2013-04-14 22:12:00,66.9,53.9,29.66,West,265,7.0,24.0,63,0.00,,SCT120,0.00,VWS V14.01,2013-04-15 03:12:00,
2013-04-14 22:18:00,66.8,54.2,29.67,SSW,200,9.0,26.0,64,0.00,,SCT120,0.00,VWS V14.01,2013-04-15 03:18:00,
2013-04-14 22:20:00,66.8,54.2,29.67,SSW,196,12.0,26.0,64,0.00,,CLR,0.00,VWS V14.01,2013-04-15 03:20:00,
2013-04-14 22:23:00,66.6,54.1,29.67,SSE,162,5.0,22.0,64,0.00,,SCT120,0.00,VWS V14.01,2013-04-15 03:23:00,
2013-04-14 22:28:00,66.4,54.3,29.67,South,183,19.0,22.0,65,0.00,,SCT120,0.00,VWS V14.01,2013-04-15 03:28:00,
2013-04-14 22:30:00,66.4,54.3,29.67,South,180,6.0,22.0,65,0.00,,CLR,0.00,VWS V14.01,2013-04-15 03:30:00,
2013-04-14 22:33:00,66.2,54.1,29.67,South,174,5.0,15.0,65,0.00,,SCT120,0.00,VWS V14.01,2013-04-15 03:33:00,
2013-04-14 22:38:00,65.9,54.2,29.67,SSW,205,7.0,24.0,66,0.00,,SCT120,0.00,VWS V14.01,2013-04-15 03:38:00,
2013-04-14 22:40:00,65.9,54.2,29.67,SSW,210,19.0,24.0,66,0.00,,CLR,0.00,VWS V14.01,2013-04-15 03:40:00,
2013-04-14 22:43:00,65.8,54.1,29.67,WNW,282,5.0,25.0,66,0.00,,BKN080,0.00,VWS V14.01,2013-04-15 03:43:00,
2013-04-14 22:48:00,65.5,54.3,29.66,West,269,7.0,25.0,67,0.00,,BKN080,0.00,VWS V14.01,2013-04-15 03:48:00,
2013-04-14 22:50:00,65.5,54.3,29.66,WSW,253,6.0,25.0,67,0.00,,CLR,0.00,VWS V14.01,2013-04-15 03:50:00,
2013-04-14 22:53:00,65.3,54.1,29.66,SSW,205,8.0,21.0,67,0.00,,BKN080,0.00,VWS V14.01,2013-04-15 03:53:00,
2013-04-14 22:58:00,65.2,54.0,29.66,SW,217,19.0,21.0,67,0.00,,BKN080,0.00,VWS V14.01,2013-04-15 03:58:00,
2013-04-14 23:00:00,65.3,54.1,29.66,SSW,207,8.0,23.0,67,0.00,,SCT100,0.00,VWS V14.01,2013-04-15 04:00:00,
2013-04-14 23:01:00,65.3,54.1,29.66,WSW,245,5.0,23.0,67,0.00,,SCT100,0.00,VWS V14.01,2013-04-15 04:01:00,
2013-04-14 23:06:00,65.2,53.6,29.65,SSW,197,10.0,25.0,66,0.00,,SCT100,0.00,VWS V14.01,2013-04-15 04:06:00,
2013-04-14 23:10:00,65.2,53.6,29.65,SSW,197,7.0,25.0,66,0.00,,CLR,0.00,VWS V14.01,2013-04-15 04:10:00,
2013-04-14 23:11:00,65.2,53.6,29.66,SSW,195,12.0,29.0,66,0.00,,SCT100,0.00,VWS V14.01,2013-04-15 04:11:00,
2013-04-14 23:17:00,65.1,53.1,29.66,SSW,205,5.0,29.0,65,0.00,,SCT100,0.00,VWS V14.01,2013-04-15 04:17:00,
2013-04-14 23:20:00,65.1,53.1,29.66,SSW,198,10.0,29.0,65,0.00,,CLR,0.00,VWS V14.01,2013-04-15 04:20:00,
2013-04-14 23:22:00,64.9,52.9,29.66,SSE,167,19.0,19.0,65,0.00,,CLR,0.00,VWS V14.01,2013-04-15 04:22:00,
2013-04-14 23:27:00,64.7,53.1,29.67,South,183,15.0,25.0,66,0.00,,CLR,0.00,VWS V14.01,2013-04-15 04:27:00,
2013-04-14 23:30:00,64.7,52.7,29.67,South,173,8.0,25.0,65,0.00,,CLR,0.00,VWS V14.01,2013-04-15 04:30:00,
2013-04-14 23:33:00,64.7,53.1,29.67,SSE,163,12.0,25.0,66,0.00,,CLR,0.00,VWS V14.01,2013-04-15 04:33:00,
2013-04-14 23:38:00,64.5,52.9,29.68,WSW,243,3.0,25.0,66,0.00,,CLR,0.00,VWS V14.01,2013-04-15 04:38:00,
2013-04-14 23:40:00,64.5,52.9,29.68,SSW,197,5.0,25.0,66,0.00,,CLR,0.00,VWS V14.01,2013-04-15 04:40:00,
2013-04-14 23:43:00,64.5,52.5,29.68,South,190,9.0,27.0,65,0.00,,CLR,0.00,VWS V14.01,2013-04-15 04:43:00,
2013-04-14 23:48:00,64.5,52.5,29.69,WSW,246,10.0,27.0,65,0.00,,CLR,0.00,VWS V14.01,2013-04-15 04:48:00,
2013-04-14 23:50:00,64.5,52.5,29.69,SW,221,7.0,27.0,65,0.00,,CLR,0.00,VWS V14.01,2013-04-15 04:50:00,
2013-04-14 23:53:00,64.4,52.0,29.68,South,181,5.0,24.0,64,0.00,,CLR,0.00,VWS V14.01,2013-04-15 04:53:00,
2013-04-14 23:58:00,64.3,51.9,29.69,WSW,248,8.0,24.0,64,0.00,,CLR,0.00,VWS V14.01,2013-04-15 04:58:00,